Tracking 19817 objects as of 19-Aug-2019
HD Live streaming from Space Station
objects crossing your sky now

COSMOS 2251 DEB

Track COSMOS 2251 DEB now!
10-day predictions


NORAD ID: 36380
Int'l Code: 1993-036AZH
Perigee: 406.2 km
Apogee: 420.8 km
Inclination: 74.0 °
Period: 92.7 minutes
Semi major axis: 6784 km
RCS: 0.0009 m2 (small)
Launch date: June 16, 1993
Source: Commonwealth of Independent States (former USSR) (CIS)
Launch site: PLESETSK MISSILE AND SPACE COMPLEX (PKMTR)

Note: This is SATELLITE DEBRIS
aabbcc
Your satellite tracking list
Your tracking list is empty




NASA's NSSDC Master Catalog

Two Line Element Set (TLE):
1 36380U 93036AZH 19230.68046837 +.00066439 +00000-0 +10330-2 0  9995
2 36380 073.9611 343.3009 0010733 009.8105 350.3316 15.53563250538932
Source of the keplerian elements: AFSPC